EST,Max TemperatureF,Mean TemperatureF,Min TemperatureF,Max Dew PointF,MeanDew PointF,Min DewpointF,Max Humidity, Mean Humidity, Min Humidity, Max Sea Level PressureIn, Mean Sea Level PressureIn, Min Sea Level PressureIn, Max VisibilityMiles, Mean VisibilityMiles, Min VisibilityMiles, Max Wind SpeedMPH, Mean Wind SpeedMPH, Max Gust SpeedMPH,PrecipitationIn, CloudCover, Events, WindDirDegrees
2013-2-1,14,10,5,7,2,-2,80,71,61,30.41,30.29,30.00,10,9,3,28,15,32,T,4,Snow,259
2013-2-2,28,20,12,24,17,4,92,80,67,30.33,30.10,29.96,10,6,1,18,11,23,0.05,8,Snow,227
2013-2-3,25,20,14,20,14,9,92,80,67,30.14,30.00,29.90,10,6,2,22,11,24,0.01,7,Snow,268
2013-2-4,32,24,16,30,22,13,92,78,63,30.13,29.93,29.81,10,6,0,17,8,23,0.04,7,Fog-Snow,201
2013-2-5,34,29,23,29,24,20,92,81,69,30.03,29.92,29.85,7,5,2,20,8,25,T,8,,313
2013-2-6,37,32,26,28,23,19,85,71,56,30.29,30.21,30.04,10,7,4,21,6,25,0.00,5,,323
2013-2-7,51,39,27,37,30,23,85,68,50,30.23,30.07,29.80,10,8,5,15,8,21,0.00,4,,129
2013-2-8,51,39,26,41,29,19,100,78,56,30.35,30.06,29.78,10,8,3,25,16,32,0.10,8,Rain,312
2013-2-9,38,29,19,22,18,16,91,68,44,30.45,30.38,30.27,10,10,9,10,6,14,0.00,1,,88
2013-2-10,51,39,27,45,29,21,86,62,38,30.25,30.02,29.79,10,10,6,30,13,38,T,8,,156
2013-2-11,50,43,35,47,35,26,93,74,55,30.04,29.86,29.74,10,10,5,37,21,44,T,6,,236
2013-2-12,46,38,30,28,25,22,78,62,45,30.15,30.06,29.96,10,10,6,20,8,25,0.00,5,,272
2013-2-13,36,32,27,28,25,24,92,81,69,29.94,29.85,29.78,10,6,4,13,7,16,0.00,6,,331
2013-2-14,50,41,31,36,32,28,100,78,56,30.00,29.88,29.81,10,7,2,26,14,32,0.00,5,,218
2013-2-15,37,30,22,30,27,16,92,83,74,30.17,30.07,29.99,10,6,1,21,8,26,0.02,7,Snow,306
2013-2-16,27,22,16,19,13,6,92,74,56,30.16,30.10,30.02,10,9,4,21,9,25,T,6,Snow,283
2013-2-17,28,20,12,11,8,6,84,63,42,30.26,30.21,30.14,10,10,4,14,7,17,T,2,Snow,288
2013-2-18,56,37,18,39,23,10,74,58,41,30.24,30.00,29.73,10,10,8,35,16,44,0.04,5,Rain,170
2013-2-19,45,34,22,40,24,14,85,74,63,30.11,29.86,29.62,10,6,1,35,23,41,0.15,8,Rain-Snow,258
2013-2-20,22,18,14,15,11,7,77,72,67,30.34,30.25,30.11,10,10,4,22,13,29,T,7,Snow,291
2013-2-21,27,24,20,21,17,14,81,75,68,30.39,30.29,30.10,10,10,7,25,10,30,0.01,8,Rain,49
2013-2-22,38,32,26,36,31,21,100,91,81,30.11,29.96,29.89,10,5,0,22,11,28,0.16,8,Fog-Rain-Snow,183
2013-2-23,39,33,27,31,26,22,89,74,59,30.01,29.97,29.93,10,9,7,16,8,20,0.00,6,,271
2013-2-24,38,32,26,23,21,18,81,67,52,30.19,30.10,29.95,10,9,7,16,7,21,0.00,5,,309
2013-2-25,43,33,22,26,23,19,88,69,49,30.21,30.13,29.96,10,9,6,17,8,21,0.00,1,,87
2013-2-26,44,39,34,43,36,23,100,80,59,29.95,29.56,29.40,10,7,2,25,15,36,0.57,8,Rain,127
2013-2-27,43,38,32,40,33,28,93,88,82,29.70,29.63,29.48,10,6,2,25,16,31,0.10,8,Rain-Snow,229
2013-2-28,36,34,31,32,31,28,96,89,82,29.96,29.79,29.64,10,5,1,18,12,23,0.04,8,Snow,283